Location: Casone le Fosse
(44.6547°N, 12.1103°E)
Time: 11:48:53
(UTC+00:00)

USA 308 - Pass Details

Date: 29 October 2020
Orbit: 571 x 578 km, 54.0° (Epoch: 23 November)

Event Time Altitude Azimuth Distance (km) Brightness Sun altitude
Rises 17:05:56 0° 306° (NW) 2,787 7.2 -11.5°
Reaches altitude 10° 17:08:16 10° 312° (NW) 1,885 6.1 -11.9°
Maximum altitude 17:12:25 48° 27° (NNE) 754 3.3 -12.6°
Enters shadow 17:15:05 20° 94° (E) 1,339 4.2 -13.1°
